Location: College Rock
(37.2713°N, 119.1740°W)
Time: 04:04:32
(UTC+00:00)

Meteor 2-5 Rocket - Pass Details

Date: 29 October 2020
Orbit: 834 x 911 km, 81.2° (Epoch: 23 November)

Event Time Altitude Azimuth Distance (km) Brightness Sun altitude
Rises 12:43:49 0° 204° (SSW) 3,413 6.6 -19.4°
Reaches altitude 10° 12:46:19 10° 211° (SSW) 2,492 5.9 -18.9°
Maximum altitude 12:51:43 46° 283° (WNW) 1,168 4.0 -17.8°
Drops below altitude 10° 12:57:18 10° 356° (N) 2,558 6.1 -16.7°
Sets 12:59:54 0° 3° (N) 3,513 6.9 -16.2°
